Year,Month,Day,Hour,Minute,Value (Times are PST for temperature in C)
2012,01,14,00,00,1.40
2012,01,14,00,01,1.40
2012,01,14,00,02,1.40
2012,01,14,00,03,1.40
2012,01,14,00,04,1.40
2012,01,14,00,05,1.40
2012,01,14,00,06,1.40
2012,01,14,00,07,1.40
2012,01,14,00,08,1.40
2012,01,14,00,09,1.40
2012,01,14,00,10,1.40
2012,01,14,00,11,1.40
2012,01,14,00,12,1.40
2012,01,14,00,13,1.50
2012,01,14,00,14,1.40
2012,01,14,00,15,1.40
2012,01,14,00,16,1.40
2012,01,14,00,17,1.40
2012,01,14,00,18,1.40
2012,01,14,00,19,1.40
2012,01,14,00,20,1.40
2012,01,14,00,21,1.40
2012,01,14,00,22,1.40
2012,01,14,00,23,1.40
2012,01,14,00,24,1.50
2012,01,14,00,25,1.50
2012,01,14,00,26,1.50
2012,01,14,00,27,1.50
2012,01,14,00,28,1.50
2012,01,14,00,29,1.50
2012,01,14,00,30,1.60
2012,01,14,00,31,1.60
2012,01,14,00,32,1.60
2012,01,14,00,33,1.60
2012,01,14,00,34,1.60
2012,01,14,00,35,1.60
2012,01,14,00,36,1.60
2012,01,14,00,37,1.60
2012,01,14,00,38,1.60
2012,01,14,00,39,1.60
2012,01,14,00,40,1.60
2012,01,14,00,41,1.60
2012,01,14,00,42,1.60
2012,01,14,00,43,1.60
2012,01,14,00,44,1.60
2012,01,14,00,45,1.60
2012,01,14,00,46,1.50
2012,01,14,00,47,1.50
2012,01,14,00,48,1.50
2012,01,14,00,49,1.50
2012,01,14,00,50,1.50
2012,01,14,00,51,1.50
2012,01,14,00,52,1.60
2012,01,14,00,53,1.60
2012,01,14,00,54,1.60
2012,01,14,00,55,1.60
2012,01,14,00,56,1.60
2012,01,14,00,57,1.60
2012,01,14,00,58,1.60
2012,01,14,00,59,1.60
2012,01,14,01,00,1.60
2012,01,14,01,01,1.60
2012,01,14,01,02,1.60
2012,01,14,01,03,1.60
2012,01,14,01,04,1.60
2012,01,14,01,05,1.60
2012,01,14,01,06,1.60
2012,01,14,01,07,1.60
2012,01,14,01,08,1.50
2012,01,14,01,09,1.50
2012,01,14,01,10,1.50
2012,01,14,01,11,1.50
2012,01,14,01,12,1.50
2012,01,14,01,13,1.50
2012,01,14,01,14,1.50
2012,01,14,01,15,1.50
2012,01,14,01,16,1.50
2012,01,14,01,17,1.50
2012,01,14,01,18,1.50
2012,01,14,01,19,1.50
2012,01,14,01,20,1.50
2012,01,14,01,21,1.50
2012,01,14,01,22,1.50
2012,01,14,01,23,1.50
2012,01,14,01,24,1.50
2012,01,14,01,25,1.50
2012,01,14,01,26,1.60
2012,01,14,01,27,1.60
2012,01,14,01,28,1.60
2012,01,14,01,29,1.60
2012,01,14,01,30,1.60
2012,01,14,01,31,1.60
2012,01,14,01,32,1.60
2012,01,14,01,33,1.60
2012,01,14,01,34,1.60
2012,01,14,01,35,1.60
2012,01,14,01,36,1.70
2012,01,14,01,37,1.70
2012,01,14,01,38,1.70
2012,01,14,01,39,1.70
2012,01,14,01,40,1.70
2012,01,14,01,41,1.70
2012,01,14,01,42,1.70
2012,01,14,01,43,1.70
2012,01,14,01,44,1.80
2012,01,14,01,45,1.80
2012,01,14,01,46,1.80
2012,01,14,01,47,1.80
2012,01,14,01,48,1.90
2012,01,14,01,49,1.90
2012,01,14,01,50,2.00
2012,01,14,01,51,2.00
2012,01,14,01,52,2.10
2012,01,14,01,53,2.10
2012,01,14,01,54,2.10
2012,01,14,01,55,2.20
2012,01,14,01,56,2.20
2012,01,14,01,57,2.20
2012,01,14,01,58,2.20
2012,01,14,01,59,2.20
2012,01,14,02,00,2.30
2012,01,14,02,01,2.30
2012,01,14,02,02,2.30
2012,01,14,02,03,2.30
2012,01,14,02,04,2.30
2012,01,14,02,05,2.30
2012,01,14,02,06,2.30
2012,01,14,02,07,2.40
2012,01,14,02,08,2.40
2012,01,14,02,09,2.40
2012,01,14,02,10,2.40
2012,01,14,02,11,2.50
2012,01,14,02,12,2.50
2012,01,14,02,13,2.50
2012,01,14,02,14,2.60
2012,01,14,02,15,2.60
2012,01,14,02,16,2.60
2012,01,14,02,17,2.60
2012,01,14,02,18,2.60
2012,01,14,02,19,2.60
2012,01,14,02,20,2.70
2012,01,14,02,21,2.70
2012,01,14,02,22,2.80
2012,01,14,02,23,2.80
2012,01,14,02,24,2.80
2012,01,14,02,25,2.80
2012,01,14,02,26,2.80
2012,01,14,02,27,2.80
2012,01,14,02,28,2.80
2012,01,14,02,29,2.90
2012,01,14,02,30,2.90
2012,01,14,02,31,2.90
2012,01,14,02,32,2.90
2012,01,14,02,33,2.90
2012,01,14,02,34,2.90
2012,01,14,02,35,2.90
2012,01,14,02,36,2.90
2012,01,14,02,37,2.90
2012,01,14,02,38,3.00
2012,01,14,02,39,3.00
2012,01,14,02,40,3.00
2012,01,14,02,41,3.00
2012,01,14,02,42,3.00
2012,01,14,02,43,3.10
2012,01,14,02,44,3.10
2012,01,14,02,45,3.00
2012,01,14,02,46,3.00
2012,01,14,02,47,3.00
2012,01,14,02,48,3.00
2012,01,14,02,49,3.00
2012,01,14,02,50,3.10
2012,01,14,02,51,3.10
2012,01,14,02,52,3.10
2012,01,14,02,53,3.00
2012,01,14,02,54,3.00
2012,01,14,02,55,3.00
2012,01,14,02,56,3.00
2012,01,14,02,57,3.00
2012,01,14,02,58,3.00
2012,01,14,02,59,3.00
2012,01,14,03,00,3.00
2012,01,14,03,01,3.00
2012,01,14,03,02,3.00
2012,01,14,03,03,3.00
2012,01,14,03,04,3.00
2012,01,14,03,05,3.10
2012,01,14,03,06,3.10
2012,01,14,03,07,3.10
2012,01,14,03,08,3.10
2012,01,14,03,09,3.10
2012,01,14,03,10,3.10
2012,01,14,03,11,3.10
2012,01,14,03,12,3.10
2012,01,14,03,13,3.10
2012,01,14,03,14,3.10
2012,01,14,03,15,3.20
2012,01,14,03,16,3.20
2012,01,14,03,17,3.20
2012,01,14,03,18,3.20
2012,01,14,03,19,3.30
2012,01,14,03,20,3.30
2012,01,14,03,21,3.30
2012,01,14,03,22,3.40
2012,01,14,03,23,3.40
2012,01,14,03,24,3.40
2012,01,14,03,25,3.40
2012,01,14,03,26,3.40
2012,01,14,03,27,3.40
2012,01,14,03,28,3.40
2012,01,14,03,29,3.40
2012,01,14,03,30,3.40
2012,01,14,03,31,3.40
2012,01,14,03,32,3.40
2012,01,14,03,33,3.40
2012,01,14,03,34,3.50
2012,01,14,03,35,3.50
2012,01,14,03,36,3.60
2012,01,14,03,37,3.60
2012,01,14,03,38,3.60
2012,01,14,03,39,3.70
2012,01,14,03,40,3.70
2012,01,14,03,41,3.80
2012,01,14,03,42,3.80
2012,01,14,03,43,3.80
2012,01,14,03,44,3.80
2012,01,14,03,45,3.90
2012,01,14,03,46,3.90
2012,01,14,03,47,4.00
2012,01,14,03,48,4.00
2012,01,14,03,49,4.10
2012,01,14,03,50,4.10
2012,01,14,03,51,4.20
2012,01,14,03,52,4.20
2012,01,14,03,53,4.20
2012,01,14,03,54,4.20
2012,01,14,03,55,4.30
2012,01,14,03,56,4.30
2012,01,14,03,57,4.30
2012,01,14,03,58,4.20
2012,01,14,03,59,4.20
2012,01,14,04,00,4.10
2012,01,14,04,01,4.10
2012,01,14,04,02,4.10
2012,01,14,04,03,4.10
2012,01,14,04,04,4.10
2012,01,14,04,05,4.20
2012,01,14,04,06,4.20
2012,01,14,04,07,4.20
2012,01,14,04,08,4.20
2012,01,14,04,09,4.20
2012,01,14,04,10,4.20
2012,01,14,04,11,4.20
2012,01,14,04,12,4.20
2012,01,14,04,13,4.20
2012,01,14,04,14,4.20
2012,01,14,04,15,4.20
2012,01,14,04,16,4.20
2012,01,14,04,17,4.20
2012,01,14,04,18,4.20
2012,01,14,04,19,4.20
2012,01,14,04,20,4.20
2012,01,14,04,21,4.20
2012,01,14,04,22,4.20
2012,01,14,04,23,4.20
2012,01,14,04,24,4.30
2012,01,14,04,25,4.20
2012,01,14,04,26,4.20
2012,01,14,04,27,4.20
2012,01,14,04,28,4.20
2012,01,14,04,29,4.20
2012,01,14,04,30,4.20
2012,01,14,04,31,4.20
2012,01,14,04,32,4.20
2012,01,14,04,33,4.20
2012,01,14,04,34,4.10
2012,01,14,04,35,4.10
2012,01,14,04,36,4.10
2012,01,14,04,37,4.10
2012,01,14,04,38,4.10
2012,01,14,04,39,4.20
2012,01,14,04,40,4.20
2012,01,14,04,41,4.20
2012,01,14,04,42,4.20
2012,01,14,04,43,4.20
2012,01,14,04,44,4.20
2012,01,14,04,45,4.10
2012,01,14,04,46,4.10
2012,01,14,04,47,4.10
2012,01,14,04,48,4.10
2012,01,14,04,49,4.10
2012,01,14,04,50,4.20
2012,01,14,04,51,4.20
2012,01,14,04,52,4.20
2012,01,14,04,53,4.30
2012,01,14,04,54,4.30
2012,01,14,04,55,4.30
2012,01,14,04,56,4.30
2012,01,14,04,57,4.30
2012,01,14,04,58,4.30
2012,01,14,04,59,4.30
2012,01,14,05,00,4.30
2012,01,14,05,01,4.30
2012,01,14,05,02,4.30
2012,01,14,05,03,4.40
2012,01,14,05,04,4.40
2012,01,14,05,05,4.30
2012,01,14,05,06,4.30
2012,01,14,05,07,4.30
2012,01,14,05,08,4.30
2012,01,14,05,09,4.30
2012,01,14,05,10,4.30
2012,01,14,05,11,4.30
2012,01,14,05,12,4.30
2012,01,14,05,13,4.30
2012,01,14,05,14,4.30
2012,01,14,05,15,4.30
2012,01,14,05,16,4.30
2012,01,14,05,17,4.20
2012,01,14,05,18,4.20
2012,01,14,05,19,4.20
2012,01,14,05,20,4.20
2012,01,14,05,21,4.20
2012,01,14,05,22,4.10
2012,01,14,05,23,4.00
2012,01,14,05,24,3.90
2012,01,14,05,25,3.80
2012,01,14,05,26,3.70
2012,01,14,05,27,3.70
2012,01,14,05,28,3.60
2012,01,14,05,29,3.60
2012,01,14,05,30,3.60
2012,01,14,05,31,3.60
2012,01,14,05,32,3.60
2012,01,14,05,33,3.50
2012,01,14,05,34,3.50
2012,01,14,05,35,3.50
2012,01,14,05,36,3.40
2012,01,14,05,37,3.40
2012,01,14,05,38,3.40
2012,01,14,05,39,3.40
2012,01,14,05,40,3.30
2012,01,14,05,41,3.30
2012,01,14,05,42,3.30
2012,01,14,05,43,3.30
2012,01,14,05,44,3.30
2012,01,14,05,45,3.30
2012,01,14,05,46,3.30
2012,01,14,05,47,3.20
2012,01,14,05,48,3.20
2012,01,14,05,49,3.20
2012,01,14,05,50,3.20
2012,01,14,05,51,3.20
2012,01,14,05,52,3.10
2012,01,14,05,53,3.10
2012,01,14,05,54,3.10
2012,01,14,05,55,3.10
2012,01,14,05,56,3.10
2012,01,14,05,57,3.10
2012,01,14,05,58,3.10
2012,01,14,05,59,3.10
2012,01,14,06,00,3.10
2012,01,14,06,01,3.10
2012,01,14,06,02,3.00
2012,01,14,06,03,3.00
2012,01,14,06,04,3.00
2012,01,14,06,05,3.00
2012,01,14,06,06,3.00
2012,01,14,06,07,2.90
2012,01,14,06,08,2.90
2012,01,14,06,09,2.90
2012,01,14,06,10,2.90
2012,01,14,06,11,2.90
2012,01,14,06,12,2.90
2012,01,14,06,13,2.90
2012,01,14,06,14,2.90
2012,01,14,06,15,2.90
2012,01,14,06,16,2.90
2012,01,14,06,17,2.90
2012,01,14,06,18,2.90
2012,01,14,06,19,2.90
2012,01,14,06,20,2.90
2012,01,14,06,21,2.90
2012,01,14,06,22,3.00
2012,01,14,06,23,3.00
2012,01,14,06,24,3.00
2012,01,14,06,25,3.00
2012,01,14,06,26,3.00
2012,01,14,06,27,3.00
2012,01,14,06,28,3.00
2012,01,14,06,29,3.00
2012,01,14,06,30,3.00
2012,01,14,06,31,3.00
2012,01,14,06,32,3.00
2012,01,14,06,33,3.00
2012,01,14,06,34,3.00
2012,01,14,06,35,3.00
2012,01,14,06,36,3.10
2012,01,14,06,37,3.10
2012,01,14,06,38,3.10
2012,01,14,06,39,3.10
2012,01,14,06,40,3.00
2012,01,14,06,41,3.00
2012,01,14,06,42,3.00
2012,01,14,06,43,3.00
2012,01,14,06,44,3.00
2012,01,14,06,45,3.00
2012,01,14,06,46,3.00
2012,01,14,06,47,3.00
2012,01,14,06,48,3.00
2012,01,14,06,49,3.00
2012,01,14,06,50,3.00
2012,01,14,06,51,3.00
2012,01,14,06,52,3.00
2012,01,14,06,53,3.00
2012,01,14,06,54,3.10
2012,01,14,06,55,3.10
2012,01,14,06,56,3.10
2012,01,14,06,57,3.10
2012,01,14,06,58,3.10
2012,01,14,06,59,3.10
2012,01,14,07,00,3.10
2012,01,14,07,01,3.10
2012,01,14,07,02,3.10
2012,01,14,07,03,3.10
2012,01,14,07,04,3.10
2012,01,14,07,05,3.10
2012,01,14,07,06,3.10
2012,01,14,07,07,3.10
2012,01,14,07,08,3.10
2012,01,14,07,09,3.10
2012,01,14,07,10,3.10
2012,01,14,07,11,3.10
2012,01,14,07,12,3.20
2012,01,14,07,13,3.20
2012,01,14,07,14,3.20
2012,01,14,07,15,3.20
2012,01,14,07,16,3.20
2012,01,14,07,17,3.10
2012,01,14,07,18,3.10
2012,01,14,07,19,3.10
2012,01,14,07,20,3.10
2012,01,14,07,21,3.10
2012,01,14,07,22,3.10
2012,01,14,07,23,3.10
2012,01,14,07,24,3.10
2012,01,14,07,25,3.10
2012,01,14,07,26,3.10
2012,01,14,07,27,3.10
2012,01,14,07,28,3.10
2012,01,14,07,29,3.10
2012,01,14,07,30,3.10
2012,01,14,07,31,3.10
2012,01,14,07,32,3.10
2012,01,14,07,33,3.10
2012,01,14,07,34,3.10
2012,01,14,07,35,3.10
2012,01,14,07,36,3.10
2012,01,14,07,37,3.20
2012,01,14,07,38,3.20
2012,01,14,07,39,3.20
2012,01,14,07,40,3.20
2012,01,14,07,41,3.20
2012,01,14,07,42,3.20
2012,01,14,07,43,3.20
2012,01,14,07,44,3.20
2012,01,14,07,45,3.20
2012,01,14,07,46,3.20
2012,01,14,07,47,3.20
2012,01,14,07,48,3.20
2012,01,14,07,49,3.20
2012,01,14,07,50,3.20
2012,01,14,07,51,3.20
2012,01,14,07,52,3.20
2012,01,14,07,53,3.20
2012,01,14,07,54,3.20
2012,01,14,07,55,3.20
2012,01,14,07,56,3.20
2012,01,14,07,57,3.20
2012,01,14,07,58,3.20
2012,01,14,07,59,3.10
2012,01,14,08,00,2.90
2012,01,14,08,01,2.70
2012,01,14,08,02,2.60
2012,01,14,08,03,2.50
2012,01,14,08,04,2.40
2012,01,14,08,05,2.30
2012,01,14,08,06,2.30
2012,01,14,08,07,2.20
2012,01,14,08,08,2.20
2012,01,14,08,09,2.20
2012,01,14,08,10,2.10
2012,01,14,08,11,2.10
2012,01,14,08,12,2.10
2012,01,14,08,13,2.20
2012,01,14,08,14,2.20
2012,01,14,08,15,2.20
2012,01,14,08,16,2.20
2012,01,14,08,17,2.20
2012,01,14,08,18,2.20
2012,01,14,08,19,2.20
2012,01,14,08,20,2.20
2012,01,14,08,21,2.20
2012,01,14,08,22,2.20
2012,01,14,08,23,2.20
2012,01,14,08,24,2.20
2012,01,14,08,25,2.20
2012,01,14,08,26,2.30
2012,01,14,08,27,2.30
2012,01,14,08,28,2.30
2012,01,14,08,29,2.30
2012,01,14,08,30,2.30
2012,01,14,08,31,2.40
2012,01,14,08,32,2.40
2012,01,14,08,33,2.40
2012,01,14,08,34,2.40
2012,01,14,08,35,2.40
2012,01,14,08,36,2.50
2012,01,14,08,37,2.50
2012,01,14,08,38,2.50
2012,01,14,08,39,2.60
2012,01,14,08,40,2.60
2012,01,14,08,41,2.70
2012,01,14,08,42,2.70
2012,01,14,08,43,2.70
2012,01,14,08,44,2.70
2012,01,14,08,45,2.80
2012,01,14,08,46,2.80
2012,01,14,08,47,2.80
2012,01,14,08,48,2.80
2012,01,14,08,49,2.80
2012,01,14,08,50,2.80
2012,01,14,08,51,2.90
2012,01,14,08,52,2.90
2012,01,14,08,53,3.00
2012,01,14,08,54,3.00
2012,01,14,08,55,3.00
2012,01,14,08,56,3.10
2012,01,14,08,57,3.10
2012,01,14,08,58,3.10
2012,01,14,08,59,3.10
2012,01,14,09,00,3.10
2012,01,14,09,01,3.20
2012,01,14,09,02,3.20
2012,01,14,09,03,3.20
2012,01,14,09,04,3.20
2012,01,14,09,05,3.20
2012,01,14,09,06,3.20
2012,01,14,09,07,3.20
2012,01,14,09,08,3.20
2012,01,14,09,09,3.20
2012,01,14,09,10,3.20
2012,01,14,09,11,3.20
2012,01,14,09,12,3.20
2012,01,14,09,13,3.20
2012,01,14,09,14,3.20
2012,01,14,09,15,3.20
2012,01,14,09,16,3.20
2012,01,14,09,17,3.20
2012,01,14,09,18,3.20
2012,01,14,09,19,3.20
2012,01,14,09,20,3.20
2012,01,14,09,21,3.30
2012,01,14,09,22,3.30
2012,01,14,09,23,3.30
2012,01,14,09,24,3.30
2012,01,14,09,25,3.30
2012,01,14,09,26,3.30
2012,01,14,09,27,3.30
2012,01,14,09,28,3.30
2012,01,14,09,29,3.30
2012,01,14,09,30,3.30
2012,01,14,09,31,3.30
2012,01,14,09,32,3.20
2012,01,14,09,33,3.20
2012,01,14,09,34,3.20
2012,01,14,09,35,3.20
2012,01,14,09,36,3.10
2012,01,14,09,37,3.10
2012,01,14,09,38,3.00
2012,01,14,09,39,3.00
2012,01,14,09,40,3.00
2012,01,14,09,41,2.90
2012,01,14,09,42,3.00
2012,01,14,09,43,2.90
2012,01,14,09,44,2.90
2012,01,14,09,45,2.90
2012,01,14,09,46,2.90
2012,01,14,09,47,2.90
2012,01,14,09,48,2.90
2012,01,14,09,49,3.00
2012,01,14,09,50,2.90
2012,01,14,09,51,3.00
2012,01,14,09,52,3.00
2012,01,14,09,53,3.00
2012,01,14,09,54,3.00
2012,01,14,09,55,3.00
2012,01,14,09,56,3.00
2012,01,14,09,57,3.10
2012,01,14,09,58,3.10
2012,01,14,09,59,3.10
2012,01,14,10,00,3.10
2012,01,14,10,01,3.10
2012,01,14,10,02,3.10
2012,01,14,10,03,3.20
2012,01,14,10,04,3.20
2012,01,14,10,05,3.20
2012,01,14,10,06,3.20
2012,01,14,10,07,3.30
2012,01,14,10,08,3.30
2012,01,14,10,09,3.30
2012,01,14,10,10,3.30
2012,01,14,10,11,3.20
2012,01,14,10,12,3.10
2012,01,14,10,13,3.00
2012,01,14,10,14,2.90
2012,01,14,10,15,2.80
2012,01,14,10,16,2.80
2012,01,14,10,17,2.70
2012,01,14,10,18,2.70
2012,01,14,10,19,2.60
2012,01,14,10,20,2.60
2012,01,14,10,21,2.60
2012,01,14,10,22,2.60
2012,01,14,10,23,2.60
2012,01,14,10,24,2.60
2012,01,14,10,25,2.70
2012,01,14,10,26,2.70
2012,01,14,10,27,2.70
2012,01,14,10,28,2.80
2012,01,14,10,29,2.80
2012,01,14,10,30,2.80
2012,01,14,10,31,2.80
2012,01,14,10,32,2.80
2012,01,14,10,33,2.90
2012,01,14,10,34,2.90
2012,01,14,10,35,2.90
2012,01,14,10,36,2.90
2012,01,14,10,37,3.00
2012,01,14,10,38,3.00
2012,01,14,10,39,3.00
2012,01,14,10,40,3.00
2012,01,14,10,41,3.10
2012,01,14,10,42,3.10
2012,01,14,10,43,3.20
2012,01,14,10,44,3.20
2012,01,14,10,45,3.30
2012,01,14,10,46,3.30
2012,01,14,10,47,3.30
2012,01,14,10,48,3.30
2012,01,14,10,49,3.30
2012,01,14,10,50,3.10
2012,01,14,10,51,3.00
2012,01,14,10,52,2.70
2012,01,14,10,53,2.60
2012,01,14,10,54,2.50
2012,01,14,10,55,2.40
2012,01,14,10,56,2.30
2012,01,14,10,57,2.30
2012,01,14,10,58,2.30
2012,01,14,10,59,2.30
2012,01,14,11,00,2.30
2012,01,14,11,01,2.30
2012,01,14,11,02,2.30
2012,01,14,11,03,2.30
2012,01,14,11,04,2.30
2012,01,14,11,05,2.30
2012,01,14,11,06,2.30
2012,01,14,11,07,2.30
2012,01,14,11,08,2.30
2012,01,14,11,09,2.30
2012,01,14,11,10,2.30
2012,01,14,11,11,2.40
2012,01,14,11,12,2.40
2012,01,14,11,13,2.40
2012,01,14,11,14,2.40
2012,01,14,11,15,2.40
2012,01,14,11,16,2.40
2012,01,14,11,17,2.40
2012,01,14,11,18,2.40
2012,01,14,11,19,2.40
2012,01,14,11,20,2.40
2012,01,14,11,21,2.40
2012,01,14,11,22,2.40
2012,01,14,11,23,2.50
2012,01,14,11,24,2.60
2012,01,14,11,25,2.60
2012,01,14,11,26,2.70
2012,01,14,11,27,2.70
2012,01,14,11,28,2.70
2012,01,14,11,29,2.80
2012,01,14,11,30,2.80
2012,01,14,11,31,2.80
2012,01,14,11,32,2.80
2012,01,14,11,33,2.80
2012,01,14,11,34,2.90
2012,01,14,11,35,2.80
2012,01,14,11,36,2.80
2012,01,14,11,37,2.80
2012,01,14,11,38,2.90
2012,01,14,11,39,2.90
2012,01,14,11,40,2.90
2012,01,14,11,41,2.90
2012,01,14,11,42,3.00
2012,01,14,11,43,3.00
2012,01,14,11,44,3.10
2012,01,14,11,45,3.10
2012,01,14,11,46,3.10
2012,01,14,11,47,3.20
2012,01,14,11,48,3.20
2012,01,14,11,49,3.20
2012,01,14,11,50,3.30
2012,01,14,11,51,3.30
2012,01,14,11,52,3.30
2012,01,14,11,53,3.30
2012,01,14,11,54,3.30
2012,01,14,11,55,3.30
2012,01,14,11,56,3.30
2012,01,14,11,57,3.30
2012,01,14,11,58,3.20
2012,01,14,11,59,3.20
2012,01,14,12,00,3.20
2012,01,14,12,01,3.20
2012,01,14,12,02,3.10
2012,01,14,12,03,3.10
2012,01,14,12,04,3.00
2012,01,14,12,05,2.80
2012,01,14,12,06,2.70
2012,01,14,12,07,2.60
2012,01,14,12,08,2.50
2012,01,14,12,09,2.40
2012,01,14,12,10,2.20
2012,01,14,12,11,2.10
2012,01,14,12,12,2.00
2012,01,14,12,13,1.80
2012,01,14,12,14,1.70
2012,01,14,12,15,1.60
2012,01,14,12,16,1.50
2012,01,14,12,17,1.40
2012,01,14,12,18,1.40
2012,01,14,12,19,1.40
2012,01,14,12,20,1.30
2012,01,14,12,21,1.30
2012,01,14,12,22,1.20
2012,01,14,12,23,1.20
2012,01,14,12,24,1.20
2012,01,14,12,25,1.20
2012,01,14,12,26,1.20
2012,01,14,12,27,1.20
2012,01,14,12,28,1.20
2012,01,14,12,29,1.20
2012,01,14,12,30,1.30
2012,01,14,12,31,1.30
2012,01,14,12,32,1.30
2012,01,14,12,33,1.40
2012,01,14,12,34,1.40
2012,01,14,12,35,1.40
2012,01,14,12,36,1.30
2012,01,14,12,37,1.30
2012,01,14,12,38,1.30
2012,01,14,12,39,1.30
2012,01,14,12,40,1.20
2012,01,14,12,41,1.20
2012,01,14,12,42,1.20
2012,01,14,12,43,1.20
2012,01,14,12,44,1.20
2012,01,14,12,45,1.30
2012,01,14,12,46,1.30
2012,01,14,12,47,1.30
2012,01,14,12,48,1.30
2012,01,14,12,49,1.30
2012,01,14,12,50,1.30
2012,01,14,12,51,1.40
2012,01,14,12,52,1.40
2012,01,14,12,53,1.40
2012,01,14,12,54,1.40
2012,01,14,12,55,1.50
2012,01,14,12,56,1.50
2012,01,14,12,57,1.50
2012,01,14,12,58,1.50
2012,01,14,12,59,1.60
2012,01,14,13,00,1.60
2012,01,14,13,01,1.60
2012,01,14,13,02,1.60
2012,01,14,13,03,1.70
2012,01,14,13,04,1.70
2012,01,14,13,05,1.70
2012,01,14,13,06,1.70
2012,01,14,13,07,1.70
2012,01,14,13,08,1.80
2012,01,14,13,09,1.80
2012,01,14,13,10,1.80
2012,01,14,13,11,1.90
2012,01,14,13,12,1.80
2012,01,14,13,13,1.80
2012,01,14,13,14,1.70
2012,01,14,13,15,1.60
2012,01,14,13,16,1.40
2012,01,14,13,17,1.30
2012,01,14,13,18,1.20
2012,01,14,13,19,1.10
2012,01,14,13,20,1.00
2012,01,14,13,21,1.00
2012,01,14,13,22,1.00
2012,01,14,13,23,0.90
2012,01,14,13,24,0.90
2012,01,14,13,25,0.80
2012,01,14,13,26,0.80
2012,01,14,13,27,0.80
2012,01,14,13,28,0.80
2012,01,14,13,29,0.80
2012,01,14,13,30,0.80
2012,01,14,13,31,0.80
2012,01,14,13,32,0.80
2012,01,14,13,33,0.70
2012,01,14,13,34,0.70
2012,01,14,13,35,0.60
2012,01,14,13,36,0.60
2012,01,14,13,37,0.60
2012,01,14,13,38,0.60
2012,01,14,13,39,0.60
2012,01,14,13,40,0.60
2012,01,14,13,41,0.70
2012,01,14,13,42,0.70
2012,01,14,13,43,0.80
2012,01,14,13,44,0.80
2012,01,14,13,45,0.80
2012,01,14,13,46,0.80
2012,01,14,13,47,0.80
2012,01,14,13,48,0.90
2012,01,14,13,49,1.00
2012,01,14,13,50,1.00
2012,01,14,13,51,1.10
2012,01,14,13,52,1.20
2012,01,14,13,53,1.20
2012,01,14,13,54,1.20
2012,01,14,13,55,1.20
2012,01,14,13,56,1.20
2012,01,14,13,57,1.20
2012,01,14,13,58,1.20
2012,01,14,13,59,1.20
2012,01,14,14,00,1.20
2012,01,14,14,01,1.20
2012,01,14,14,02,1.20
2012,01,14,14,03,1.20
2012,01,14,14,04,1.20
2012,01,14,14,05,1.10
2012,01,14,14,06,1.10
2012,01,14,14,07,1.10
2012,01,14,14,08,1.10
2012,01,14,14,09,1.10
2012,01,14,14,10,1.10
2012,01,14,14,11,1.10
2012,01,14,14,12,1.20
2012,01,14,14,13,1.20
2012,01,14,14,14,1.20
2012,01,14,14,15,1.20
2012,01,14,14,16,1.20
2012,01,14,14,17,1.20
2012,01,14,14,18,1.20
2012,01,14,14,19,1.20
2012,01,14,14,20,1.20
2012,01,14,14,21,1.20
2012,01,14,14,22,1.30
2012,01,14,14,23,1.20
2012,01,14,14,24,1.20
2012,01,14,14,25,1.20
2012,01,14,14,26,1.20
2012,01,14,14,27,1.20
2012,01,14,14,28,1.20
2012,01,14,14,29,1.30
2012,01,14,14,30,1.30
2012,01,14,14,31,1.20
2012,01,14,14,32,1.20
2012,01,14,14,33,1.30
2012,01,14,14,34,1.30
2012,01,14,14,35,1.30
2012,01,14,14,36,1.30
2012,01,14,14,37,1.30
2012,01,14,14,38,1.30
2012,01,14,14,39,1.30
2012,01,14,14,40,1.30
2012,01,14,14,41,1.30
2012,01,14,14,42,1.20
2012,01,14,14,43,1.20
2012,01,14,14,44,1.20
2012,01,14,14,45,1.30
2012,01,14,14,46,1.30
2012,01,14,14,47,1.30
2012,01,14,14,48,1.30
2012,01,14,14,49,1.30
2012,01,14,14,50,1.30
2012,01,14,14,51,1.30
2012,01,14,14,52,1.30
2012,01,14,14,53,1.30
2012,01,14,14,54,1.30
2012,01,14,14,55,1.40
2012,01,14,14,56,1.40
2012,01,14,14,57,1.40
2012,01,14,14,58,1.40
2012,01,14,14,59,1.40
2012,01,14,15,00,1.40
2012,01,14,15,01,1.40
2012,01,14,15,02,1.50
2012,01,14,15,03,1.50
2012,01,14,15,04,1.60
2012,01,14,15,05,1.60
2012,01,14,15,06,1.60
2012,01,14,15,07,1.60
2012,01,14,15,08,1.60
2012,01,14,15,09,1.60
2012,01,14,15,10,1.60
2012,01,14,15,11,1.60
2012,01,14,15,12,1.60
2012,01,14,15,13,1.60
2012,01,14,15,14,1.50
2012,01,14,15,15,1.50
2012,01,14,15,16,1.40
2012,01,14,15,17,1.40
2012,01,14,15,18,1.40
2012,01,14,15,19,1.40
2012,01,14,15,20,1.30
2012,01,14,15,21,1.30
2012,01,14,15,22,1.30
2012,01,14,15,23,1.30
2012,01,14,15,24,1.30
2012,01,14,15,25,1.30
2012,01,14,15,26,1.30
2012,01,14,15,27,1.30
2012,01,14,15,28,1.30
2012,01,14,15,29,1.30
2012,01,14,15,30,1.30
2012,01,14,15,31,1.30
2012,01,14,15,32,1.30
2012,01,14,15,33,1.30
2012,01,14,15,34,1.40
2012,01,14,15,35,1.40
2012,01,14,15,36,1.40
2012,01,14,15,37,1.40
2012,01,14,15,38,1.50
2012,01,14,15,39,1.50
2012,01,14,15,40,1.60
2012,01,14,15,41,1.60
2012,01,14,15,42,1.50
2012,01,14,15,43,1.50
2012,01,14,15,44,1.40
2012,01,14,15,45,1.40
2012,01,14,15,46,1.30
2012,01,14,15,47,1.30
2012,01,14,15,48,1.20
2012,01,14,15,49,1.20
2012,01,14,15,50,1.10
2012,01,14,15,51,1.00
2012,01,14,15,52,1.00
2012,01,14,15,53,1.00
2012,01,14,15,54,0.90
2012,01,14,15,55,0.90
2012,01,14,15,56,0.90
2012,01,14,15,57,0.90
2012,01,14,15,58,0.80
2012,01,14,15,59,0.80
2012,01,14,16,00,0.80
2012,01,14,16,01,0.70
2012,01,14,16,02,0.70
2012,01,14,16,03,0.70
2012,01,14,16,04,0.70
2012,01,14,16,05,0.70
2012,01,14,16,06,0.70
2012,01,14,16,07,0.70
2012,01,14,16,08,0.70
2012,01,14,16,09,0.70
2012,01,14,16,10,0.60
2012,01,14,16,11,0.60
2012,01,14,16,12,0.60
2012,01,14,16,13,0.60
2012,01,14,16,14,0.60
2012,01,14,16,15,0.60
2012,01,14,16,16,0.70
2012,01,14,16,17,0.70
2012,01,14,16,18,0.70
2012,01,14,16,19,0.70
2012,01,14,16,20,0.70
2012,01,14,16,21,0.60
2012,01,14,16,22,0.60
2012,01,14,16,23,0.60
2012,01,14,16,24,0.60
2012,01,14,16,25,0.60
2012,01,14,16,26,0.60
2012,01,14,16,27,0.60
2012,01,14,16,28,0.60
2012,01,14,16,29,0.60
2012,01,14,16,30,0.60
2012,01,14,16,31,0.60
2012,01,14,16,32,0.60
2012,01,14,16,33,0.60
2012,01,14,16,34,0.60
2012,01,14,16,35,0.60
2012,01,14,16,36,0.60
2012,01,14,16,37,0.60
2012,01,14,16,38,0.60
2012,01,14,16,39,0.60
2012,01,14,16,40,0.60
2012,01,14,16,41,0.50
2012,01,14,16,42,0.50
2012,01,14,16,43,0.50
2012,01,14,16,44,0.50
2012,01,14,16,45,0.50
2012,01,14,16,46,0.50
2012,01,14,16,47,0.50
2012,01,14,16,48,0.40
2012,01,14,16,49,0.40
2012,01,14,16,50,0.40
2012,01,14,16,51,0.40
2012,01,14,16,52,0.40
2012,01,14,16,53,0.30
2012,01,14,16,54,0.30
2012,01,14,16,55,0.30
2012,01,14,16,56,0.30
2012,01,14,16,57,0.30
2012,01,14,16,58,0.30
2012,01,14,16,59,0.30
2012,01,14,17,00,0.30
2012,01,14,17,01,0.20
2012,01,14,17,02,0.20
2012,01,14,17,03,0.20
2012,01,14,17,04,0.20
2012,01,14,17,05,0.20
2012,01,14,17,06,0.20
2012,01,14,17,07,0.20
2012,01,14,17,08,0.20
2012,01,14,17,09,0.20
2012,01,14,17,10,0.20
2012,01,14,17,11,0.20
2012,01,14,17,12,0.20
2012,01,14,17,13,0.20
2012,01,14,17,14,0.20
2012,01,14,17,15,0.20
2012,01,14,17,16,0.20
2012,01,14,17,17,0.20
2012,01,14,17,18,0.30
2012,01,14,17,19,0.30
2012,01,14,17,20,0.40
2012,01,14,17,21,0.50
2012,01,14,17,22,0.50
2012,01,14,17,23,0.50
2012,01,14,17,24,0.40
2012,01,14,17,25,0.30
2012,01,14,17,26,0.20
2012,01,14,17,27,0.10
2012,01,14,17,28,0.00
2012,01,14,17,29,-0.10
2012,01,14,17,30,-0.10
2012,01,14,17,31,-0.20
2012,01,14,17,32,-0.20
2012,01,14,17,33,-0.20
2012,01,14,17,34,-0.20
2012,01,14,17,35,-0.20
2012,01,14,17,36,-0.20
2012,01,14,17,37,-0.20
2012,01,14,17,38,-0.20
2012,01,14,17,39,-0.20
2012,01,14,17,40,-0.20
2012,01,14,17,41,-0.20
2012,01,14,17,42,-0.20
2012,01,14,17,43,-0.20
2012,01,14,17,44,-0.20
2012,01,14,17,45,-0.20
2012,01,14,17,46,-0.20
2012,01,14,17,47,-0.20
2012,01,14,17,48,-0.20
2012,01,14,17,49,-0.20
2012,01,14,17,50,-0.20
2012,01,14,17,51,-0.20
2012,01,14,17,52,-0.20
2012,01,14,17,53,-0.20
2012,01,14,17,54,-0.20
2012,01,14,17,55,-0.20
2012,01,14,17,56,-0.20
2012,01,14,17,57,-0.20
2012,01,14,17,58,-0.20
2012,01,14,17,59,-0.20
2012,01,14,18,00,-0.20
2012,01,14,18,01,-0.20
2012,01,14,18,02,-0.20
2012,01,14,18,03,-0.20
2012,01,14,18,04,-0.20
2012,01,14,18,05,-0.20